Beale AFB, CA

5:26 PM PDT on April 25, 2018 (GMT -0700)
Beale Air Force Base

Weather History for KBAB - May, 2013

Change the Weather History Date:

Sunday, May 26, 2013

  Actual Average Record
Temperature  
Mean Temperature 64 °F -  
Max Temperature 79 °F 81 °F 93 °F (2014)
Min Temperature 51 °F 58 °F 46 °F (2011)
Growing Degree Days 14 (Base 50)    
Moisture  
Dew Point 46 °F    
Average Humidity 52    
Maximum Humidity 80    
Minimum Humidity 26    
Precipitation  
Precipitation 0.00 in - - ()
Sea Level Pressure  
Sea Level Pressure 30.22 in    
Wind  
Wind Speed 10 mph (SSE)    
Max Wind Speed 14 mph    
Max Gust Speed 20 mph    
Visibility 10 miles    
Events      
Averages and records for this station are not official NWS values.
T = Trace of Precipitation, MM = Missing Value Source: NWS Daily Summary

Daily Weather History Graph

Daily Weather History Graph

Search for Another Location

Airport or City:

Astronomy

May. 26, 2013 Rise Set
Actual Time 5:44 AM PDT 8:21 PM PDT
Civil Twilight 5:13 AM PDT 8:53 PM PDT
Nautical Twilight 4:34 AM PDT 9:31 PM PDT
Astronomical Twilight 3:50 AM PDT 10:15 PM PDT
Moon 10:14 PM PDT 7:19 AM PDT
Length of Visible Light 15h 39m
Length of Day
14h 37m
Waning Gibbous, 96% of the Moon is Illuminated
May 26
Waning Gibbous
May 31
Last Quarter
Jun 8
New
Jun 16
First Quarter
Jun 23
Full

Hourly Weather History & Observations

Time (PDT) Temp. Dew Point Humidity Pressure Visibility Wind Dir Wind Speed Gust Speed Precip Events Conditions
12:58 AM 58.6 °F 46.0 °F 63% 30.19 in 10.0 mi SSE 12.7 mph - N/A   Clear
1:58 AM 57.2 °F 46.4 °F 67% 30.19 in 10.0 mi SSE 12.7 mph - N/A   Clear
2:58 AM 55.4 °F 45.9 °F 70% 30.19 in 10.0 mi SE 10.4 mph - N/A   Clear
3:58 AM 51.4 °F 45.5 °F 80% 30.20 in 10.0 mi SSE 6.9 mph - N/A   Clear
4:58 AM 54.7 °F 46.2 °F 73% 30.20 in 10.0 mi SE 12.7 mph - N/A   Clear
5:58 AM 54.3 °F 46.0 °F 74% 30.22 in 10.0 mi SSE 10.4 mph - N/A   Clear
6:58 AM 56.3 °F 46.4 °F 69% 30.25 in 10.0 mi SSE 10.4 mph - N/A   Clear
7:58 AM 59.5 °F 47.3 °F 64% 30.25 in 10.0 mi SE 13.8 mph - N/A   Clear
8:58 AM 62.2 °F 48.6 °F 61% 30.27 in 10.0 mi SE 11.5 mph - N/A   Clear
9:58 AM 65.8 °F 48.9 °F 54% 30.27 in 10.0 mi South 11.5 mph - N/A   Clear
10:58 AM 68.7 °F 49.1 °F 50% 30.27 in 10.0 mi South 11.5 mph 18.4 mph N/A   Partly Cloudy
11:58 AM 70.5 °F 49.3 °F 47% 30.27 in 10.0 mi SSW 12.7 mph 19.6 mph N/A   Clear
12:34 PM 71.6 °F 48.2 °F 43% 30.04 in 10.0 mi South 11.5 mph 17.3 mph N/A   Clear
12:58 PM 72.7 °F 47.5 °F 41% 30.25 in 10.0 mi South 10.4 mph - N/A   Clear
1:58 PM 74.7 °F 47.5 °F 38% 30.25 in 10.0 mi Variable 4.6 mph - N/A   Clear
2:58 PM 76.6 °F 42.1 °F 29% 30.25 in 10.0 mi Variable 3.5 mph - N/A   Clear
3:58 PM 77.5 °F 44.4 °F 31% 30.22 in 10.0 mi Variable 2.3 mph - N/A   Clear
4:58 PM 78.6 °F 45.1 °F 31% 30.22 in 4.0 mi South 9.2 mph - N/A   Haze
5:58 PM 78.3 °F 43.5 °F 29% 30.20 in 10.0 mi Variable 3.5 mph - N/A   Clear
6:58 PM 77.7 °F 40.6 °F 26% 30.19 in 10.0 mi South 4.6 mph - N/A   Clear
7:58 PM 74.1 °F 39.2 °F 28% 30.20 in 10.0 mi ESE 5.8 mph - N/A   Clear
8:58 PM 65.8 °F 48.0 °F 53% 30.22 in 10.0 mi SSE 8.1 mph - N/A   Clear
9:58 PM 64.9 °F 48.7 °F 56% 30.25 in 10.0 mi SSE 9.2 mph - N/A   Clear
10:58 PM 62.4 °F 48.6 °F 60% 30.25 in 10.0 mi SE 9.2 mph - N/A   Clear
11:58 PM 61.7 °F 48.2 °F 61% 30.27 in 10.0 mi SSE 10.4 mph - N/A   Clear